Flag for Norway Weather past 2 weeks in Bardufoss, Norway

Now
28 °F

Passing clouds.


Feels Like: 28 °F
Forecast: 33 / 42 °F
Wind: No wind

Location: Bardufoss

Current Time: Oct 26, 2014 at 5:45:40 AM

Latest Report: Oct 26, 2014 at 4:50 AM


Visibility: N/A

Pressure: 29.45 "Hg

Humidity: 93%

Dew point: 27 °F

Location of BardufossLocation

Historic Weather in Bardufoss — Graph

°F

Bardufoss temperature yesterday

Maximum temperature yesterday: 39 °F (at 12:50 AM)
Minimum temperature yesterday: 30 °F (at 11:50 PM)
Average temperature yesterday: 36 °F

Past Weeks' High & Low Weather Summary

 TemperatureHumidityPressure
High41 °F (Oct 17, 12:20 PM)100% (Oct 12, 1:50 AM)30.15 "Hg (Oct 12, 1:50 AM)
Low18 °F (Oct 13, 2:50 AM)41% (Oct 22, 2:50 PM)29.45 "Hg (Oct 26, 3:50 AM)
Average32 °F78%29.86 "Hg
* Reported Oct 11 4:50 AM — Oct 26 3:50 AM, Bardufoss, Weather by CustomWeather, © 2014

Note: Actual official high and low records may vary slightly from our data, if they occured in-between our weather recording intervals... More about our weather records

Advertising

Bardufoss weather history for previous 24 hours

 ConditionsComfort  
Time TempWeatherWind HumidityBarometerVisibility
3:50 AM
Oct 26
28 °FPassing clouds.2 mph93%29.45 "HgN/A
2:50 AM28 °FPassing clouds.1 mph93%29.47 "HgN/A
2:50 AM28 °FPassing clouds.1 mph93%29.50 "HgN/A
1:50 AM28 °FPassing clouds.2 mph100%29.53 "HgN/A
12:50 AM28 °FPassing clouds.1 mph93%29.53 "HgN/A
11:50 PM
Oct 25
30 °FPassing clouds.1 mph93%29.53 "HgN/A
10:50 PM32 °FPassing clouds.2 mph93%29.56 "HgN/A
9:50 PM36 °FPassing clouds.1 mph87%29.56 "HgN/A
8:50 PM39 °FPassing clouds.6 mph81%29.56 "HgN/A
7:50 PM39 °FPassing clouds.1 mph75%29.56 "HgN/A
6:50 PM39 °FPartly cloudy.3 mph75%29.56 "HgN/A
6:20 PM39 °FPassing clouds.2 mph81%29.56 "HgN/A
5:50 PM37 °FPassing clouds.1 mph81%29.56 "HgN/A
5:20 PM39 °FPartly sunny.1 mph81%29.56 "HgN/A
4:50 PM39 °FPartly sunny.1 mph81%29.56 "HgN/A
4:20 PM39 °FScattered showers. Partly sunny.2 mph81%29.56 "HgN/A
3:50 PM39 °FPartly sunny.1 mph81%29.53 "HgN/A
3:20 PM39 °FBroken clouds.1 mph81%29.53 "HgN/A
2:50 PM39 °FBroken clouds.2 mph81%29.53 "HgN/A
2:20 PM37 °FBroken clouds.2 mph81%29.56 "HgN/A
1:50 PM37 °FBroken clouds.3 mph81%29.56 "HgN/A
1:20 PM36 °FPartly sunny.1 mph87%29.56 "HgN/A
12:50 PM36 °FPartly sunny.1 mph87%29.56 "HgN/A
12:20 PM36 °FBroken clouds.1 mph87%29.56 "HgN/A
11:50 AM36 °FBroken clouds.2 mph87%29.56 "HgN/A
11:20 AM36 °FBroken clouds.1 mph87%29.59 "HgN/A
10:50 AM34 °FBroken clouds.2 mph87%29.59 "HgN/A
10:20 AM36 °FBroken clouds.2 mph87%29.59 "HgN/A
9:50 AM34 °FBroken clouds.2 mph87%29.62 "HgN/A
9:20 AM34 °FPartly cloudy.2 mph87%29.62 "HgN/A
8:50 AM34 °FPartly cloudy.3 mph93%29.62 "HgN/A
8:20 AM32 °FPartly cloudy.No wind93%29.62 "HgN/A
7:50 AM32 °FPassing clouds.1 mph93%29.62 "HgN/A
7:20 AM34 °FPassing clouds.No wind87%29.62 "HgN/A
6:50 AM34 °FPassing clouds.2 mph81%29.65 "HgN/A
6:20 AM34 °FPassing clouds.3 mph87%29.65 "HgN/A
5:50 AM34 °FPassing clouds.1 mph81%29.65 "HgN/A
5:20 AM34 °FPassing clouds.2 mph81%29.65 "HgN/A
Weather by CustomWeather, © 2014

See weather overviewHow to use our weather pages